CW7762 Weather Reports


Display with metric or nautical units.
time (UTC)temp
F
wind
direction
speed
MPH
gust
MPH
rain 1hr
in
rain 24hr
in
rain mn
in
humidity
%
barometer
mb
20260503200224 63 160 23.0 36.0 0.00 0.05 0.05 46 1010.2
20260503193224 64 221 18.0 34.0 0.00 0.05 0.05 47 1010.4
20260503190224 64 193 18.0 34.0 0.00 0.05 0.05 49 1011.1
20260503183224 61 180 16.0 27.0 0.00 0.05 0.05 61 1011.7
20260503180224 54 157 10.0 13.0 0.01 0.05 0.05 78 1012.8
20260503170224 52 163 6.0 16.0 0.02 0.04 0.04 80 1014.4
20260503150223 55 222 14.0 30.0 0.00 0.00 0.00 58 1015.2
20260503140223 54 217 8.0 26.0 0.00 0.00 0.00 61 1015.8
20260503110223 44 192 6.0 16.0 0.00 0.00 0.00 67 1015.8
20260503100222 44 221 7.0 12.0 0.00 0.00 0.00 67 1016.0
20260503090222 44 230 7.0 9.0 0.00 0.00 0.00 65 1016.4
20260503080222 45 225 7.0 13.0 0.00 0.00 0.00 62 1016.5
20260503070222 45 230 7.0 14.0 0.00 0.00 0.00 61 1016.6
20260503060222 45 217 8.0 12.0 0.00 0.00 0.00 60 1017.1
20260503053221 45 213 6.0 10.0 0.00 0.00 0.00 61 1017.2
20260503050222 46 211 4.0 9.0 0.00 0.00 0.00 60 1017.4
20260503043221 47 202 6.0 8.0 0.00 0.00 0.00 59 1017.5
20260503040221 47 190 4.0 8.0 0.00 0.00 0.00 58 1017.6
20260503033221 48 201 4.0 8.0 0.00 0.00 0.00 57 1017.6
20260503030221 48 200 5.0 8.0 0.00 0.00 0.00 57 1017.7
20260503023221 48 209 4.0 7.0 0.00 0.00 0.00 57 1017.6
20260503020221 50 191 2.0 4.0 0.00 0.00 0.00 54 1017.8
20260503013221 52 209 1.0 5.0 0.00 0.00 0.00 51 1017.6
20260503010221 54 226 1.0 4.0 0.00 0.00 0.00 48 1017.5
20260503003221 55 236 2.0 9.0 0.00 0.00 0.00 46 1017.5
20260503000221 55 269 4.0 5.0 0.00 0.00 0.00 44 1017.5
20260502233221 56 218 7.0 12.0 0.00 0.00 0.00 41 1017.5
20260502230221 55 250 6.0 12.0 0.00 0.00 0.00 45 1017.5
20260502223220 57 270 5.0 14.0 0.00 0.00 0.00 41 1017.6
20260502220220 59 301 11.0 14.0 0.00 0.00 0.00 43 1017.8
20260502213220 56 271 4.0 17.0 0.00 0.00 0.00 43 1017.7
20260502210220 59 348 5.0 18.0 0.00 0.00 0.00 39 1017.9
20260502203220 56 177 4.0 14.0 0.00 0.00 0.00 44 1018.4